Miscellaneous Local Product
Issued by NWS Hastings, NE

Home | Current Version | Previous Version | Text Only | Print | Product List | Glossary Off
Versions: 1 2 3 4 5 6 7 8 9 10 11 12 13 14 15 16 17 18 19 20 21 22 23 24 25 26 27 28 29 30 31 32 33 34 35 36 37 38 39 40 41 42 43 44 45 46 47 48 49 50

044
AXUS43 KGID 042202
MISGRI

GID CWA HOURLY WEATHER ROUNDUP
NATIONAL WEATHER SERVICE HASTINGS NE
400 PM CST SUN DEC 04 2016

NOTE: "FAIR" INDICATES FEW OR NO CLOUDS BELOW 12,000 FEET WITH NO
SIGNIFICANT WEATHER AND/OR OBSTRUCTIONS TO VISIBILITY.

...SOUTH CENTRAL NEBRASKA...

CITY           SKY/WX    TMP DP  RH WIND       PRES   REMARKS
GRAND ISLAND   CLEAR     49  31  49 SW10      29.87F
HASTINGS       CLEAR     47  35  63 SW8       29.89F
KEARNEY        CLEAR     52  18  25 W9        29.87S
ORD            CLEAR     51  15  23 W12       29.83F
YORK           CLEAR     46  37  71 SW7       29.89S
AURORA         CLEAR     48  33  55 SW8       29.88S
LEXINGTON      SUNNY     50  17  26 W9        29.87S
HOLDREGE       SUNNY     50  17  27 W9        29.88S
HEBRON         CLEAR     37  32  83 S7        29.93S WCI  31

...NEBRASKA PANHANDLE...

CITY           SKY/WX    TMP DP  RH WIND       PRES   REMARKS
CHADRON        SUNNY     48  14  25 W12       29.73F
ALLIANCE       SUNNY     47  15  27 W18G25    29.75F
SCOTTSBLUFF    SUNNY     50  17  27 W17G25    29.77F
SIDNEY         SUNNY     47   9  21 SW13      29.82F

...WESTERN AND NORTH CENTRAL NEBRASKA...

CITY           SKY/WX    TMP DP  RH WIND       PRES   REMARKS
VALENTINE      CLEAR     48  12  23 W10       29.78F
AINSWORTH      CLEAR     48  18  29 W9        29.80F
ONEILL         CLEAR     49  22  34 W6        29.83F
BROKEN BOW     CLEAR     50  17  27 W8        29.84F
IMPERIAL       SUNNY     52   6  15 SW15      29.84F
NORTH PLATTE   SUNNY     45  18  34 W7        29.85F
MCCOOK         SUNNY     50  13  22 W12       29.88F

...EASTERN NEBRASKA...

CITY           SKY/WX    TMP DP  RH WIND       PRES   REMARKS
NORFOLK        CLEAR     50  24  36 W8        29.84S
SO SIOUX CITY  CLEAR     50  32  50 W9        29.84S
TEKAMAH        CLEAR     43  37  79 S7        29.88S
COLUMBUS       CLEAR     48  34  57 SW7       29.88S
ALBION         CLEAR     49  24  37 W6        29.85F
OMAHA EPPLEY   CLEAR     41  32  70 S6        29.90S
OFFUTT AFB     CLEAR     39  35  86 SW3       29.91S
MILLARD        CLEAR     38  32  78 SW3       29.91S
LINCOLN        CLEAR     37  32  82 SW5       29.93S WCI  33
NEBRASKA CITY  CLEAR     39  33  78 SW9       29.93R WCI  33
BEATRICE       CLEAR     42  36  79 SW7       29.93S
FALLS CITY     CLEAR     43  36  76 SW10      29.94S

...NORTHERN KANSAS...

CITY           SKY/WX    TMP DP  RH WIND       PRES   REMARKS
GOODLAND       SUNNY     49   8  19 SW16      29.89F
HILL CITY      SUNNY     52  18  26 W6        29.93S
NORTON         CLEAR     50  12  22 W6        29.89F
PHILLIPSBURG   SUNNY     52  19  28 W8        29.91S
SMITH CENTER   SUNNY     46  34  61 S6        29.93S
BELOIT         SUNNY     46  34  61 S6        29.94F
HAYS           SUNNY     52  25  35 W8        29.95F
RUSSELL        SUNNY     50  28  42 SW7       29.94F
CONCORDIA      CLEAR     46  34  62 SW9       29.95S
SALINA         SUNNY     52  33  48 SW7       29.98S
TOPEKA         MOCLDY    39  34  82 SW6       30.00R WCI  35



USA.gov is the U.S. government's official web portal to all federal, state and local government web resources and services.